Epoch 2024 Oct. 17.0 TT = JDT 2460600.5 T 2023 Jan. 28.99496 TT Rudenko q 6.6081594 (2000.0) P Q z -0.0001926 Peri. 349.92414 +0.46594233 +0.51890317 +/-0.0000064 Node 303.33541 -0.74034162 -0.21493626 e 1.0012729 Incl. 59.07319 -0.48455344 +0.82737047 >From 34 observations 2023 June 18-2024 Aug. 1, mean residual 0".2.
m1 = 8.5 + 5 log d + 10.0 log r